This is the latest recevied weather packets stored in our database for station/object W3JGB. If no packets are shown the sender has not sent any weather packets the latest 10 day(s).
| Time | Temp. | Humidity | Pressure | Rain* | Wind** | Luminosity | Snow |
|---|---|---|---|---|---|---|---|
| 1777798944 | 2.78° C | 75% | 1013.7 hPa | 0 mm | - | 0 W/m² | - |
| 1777798639 | 2.22° C | 78% | 1013.6 hPa | 0 mm | - | 0 W/m² | - |
| 1777798337 | 2.22° C | 81% | 1013.5 hPa | 0 mm | - | 0 W/m² | - |
| 1777798033 | 2.22° C | 78% | 1013.6 hPa | 0 mm | - | 0 W/m² | - |
| 1777797731 | 1.67° C | 82% | 1013.6 hPa | 0 mm | - | 0 W/m² | - |
| 1777797428 | 2.22° C | 83% | 1013.8 hPa | 0 mm | - | 0 W/m² | - |
| 1777797126 | 2.22° C | 81% | 1013.7 hPa | 0 mm | - | 0 W/m² | - |
| 1777796822 | 1.67° C | 80% | 1013.6 hPa | 0 mm | - | 0 W/m² | - |
| 1777796519 | 2.22° C | 82% | 1013.8 hPa | 0 mm | - | 0 W/m² | - |
| 1777796214 | 2.22° C | 83% | 1013.5 hPa | 0 mm | - | 0 W/m² | - |
| 1777795911 | 2.78° C | 81% | 1013.6 hPa | 0 mm | - | 0 W/m² | - |
| 1777795606 | 2.78° C | 81% | 1013.5 hPa | 0 mm | - | 0 W/m² | - |
| 1777795304 | 2.22° C | 81% | 1013.6 hPa | 0 mm | - | 0 W/m² | - |
| 1777795000 | 2.78° C | 81% | 1013.4 hPa | 0 mm | - | 0 W/m² | - |
| 1777794696 | 2.78° C | 79% | 1013.4 hPa | 0 mm | - | 0 W/m² | - |
| 1777794392 | 3.33° C | 77% | 1013.3 hPa | 0 mm | - | 0 W/m² | - |
| 1777794088 | 3.89° C | 73% | 1013.2 hPa | 0 mm | - | 0 W/m² | - |
| 1777793784 | 3.33° C | 75% | 1013.3 hPa | 0 mm | - | 0 W/m² | - |
| 1777793483 | 3.89° C | 77% | 1013.2 hPa | 0 mm | - | 0 W/m² | - |
| 1777793180 | 3.89° C | 73% | 1013 hPa | 0 mm | - | 0 W/m² | - |
| 1777792877 | 4.44° C | 71% | 1013.2 hPa | 0 mm | - | 0 W/m² | - |
| 1777792574 | 5° C | 69% | 1013.1 hPa | 0 mm | - | 0 W/m² | - |
| 1777792271 | 5° C | 69% | 1013 hPa | 0 mm | - | 0 W/m² | - |
| 1777791968 | 5° C | 67% | 1013 hPa | 0 mm | - | 0 W/m² | - |
| 1777791666 | 5° C | 67% | 1013.2 hPa | 0 mm | - | 0 W/m² | - |
* Rain latest hour (hover to see other rain measurements)
** Current wind speed in m/s (hover to see current wind gust speed)